Regional Weather Roundup
Issued by NWS

Home | Current Version | Previous Version | Graphics & Text | Print | Product List | Glossary On
Versions: 1 2 3 4 5 6 7 8 9 10 11 12 13 14 15 16 17 18 19 20 21 22 23 24 25 26 27 28 29 30 31 32 33 34 35 36 37 38 39 40 41 42 43 44 45 46 47 48 49 50
000
ASUS43 KFSD 281410
RWRSD

WEATHER ROUNDUP FOR SOUTH DAKOTA
NATIONAL WEATHER SERVICE SIOUX FALLS SD
900 AM CDT TUE MAR 28 2017

NOTE: "FAIR" INDICATES FEW OR NO CLOUDS BELOW 12,000 FEET WITH NO
SIGNIFICANT WEATHER AND/OR OBSTRUCTIONS TO VISIBILITY.


SDZ001>005-009-010-012>017-281500-
NORTHWEST AND NORTH CENTRAL SOUTH DAKOTA

CITY           SKY/WX    TMP DP  RH WIND       PRES   REMARKS
BUFFALO          N/A     39  34  82 NE6       29.95R
FAITH            N/A     39  37  92 MISG      30.02R
$$

SDZ012>016-024>037-041>051-057-063-072>074-281500-
SOUTHWEST AND SOUTH CENTRAL SOUTH DAKOTA

CITY           SKY/WX    TMP DP  RH WIND       PRES   REMARKS
RAPID CTY ARPT CLOUDY    40  33  76 NW6       29.99R
PIERRE         PTSUNNY   43  38  82 E7        30.04R
CUSTER         LGT RAIN  39  36  89 NE6       29.98R
ELLSWORTH AFB  CLOUDY    40  36  88 CALM      29.99R
PHILIP         CLOUDY    45  41  86 E9        30.00R
PINE RIDGE     LGT RAIN  47  46  97 N3        29.98S FOG
SPEARFISH      FAIR      37  36  93 NW3       30.01R
WINNER         LGT RAIN  47  44  90 SE7       30.05R FOG
$$

SDZ004>011-016>023-039-040-281500-
NORTHEAST SOUTH DAKOTA

CITY           SKY/WX    TMP DP  RH WIND       PRES   REMARKS
ABERDEEN       MOSUNNY   34  30  85 MISG      30.13R
WATERTOWN      CLOUDY    35  33  92 CALM      30.11R
BROOKINGS      SUNNY     41  36  82 CALM      30.11R
SISSETON         N/A     32  32 100 N7        30.14R WCI  26
$$

SDZ017-020-022-023-036>040-048>070-281500-
SOUTHEAST SOUTH DAKOTA

CITY           SKY/WX    TMP DP  RH WIND       PRES   REMARKS
SIOUX FALLS    PTSUNNY   38  37  97 CALM      30.11R
HURON          CLOUDY    39  37  92 SE3       30.09R
CHAMBERLAIN    CLOUDY    43  42  95 E3        30.07R
MITCHELL       CLOUDY    38  37  97 SE5       30.11R FOG
YANKTON        CLOUDY   N/A N/A N/A E3        30.10R
$$

ABBREVIATIONS USED IN REMARKS
   TC - TEMPERATURE IN CELSIUS
  WCI - WIND CHILL INDEX
   HX - HEAT INDEX
  VSB - VISIBILITY




USA.gov is the U.S. government's official web portal to all federal, state and local government web resources and services.